Lid_Strength_Index
-1 -1 -0 -0 0 -0 -0 -0 -0 -0 -0 -0 -1 -1 -1 -1 -0 1 5 3 2 -1 1 4 4 4 4 5 6 6 8 9 9 9 8 7 7 7 7 6 5 4 5 3 1
-1 -0 -0 -0 0 0 -0 -0 -0 -0 -0 -0 -1 -1 -1 -1 2 4 0 -2 -1 -0 4 5 6 5 6 6 6 6 8 9 8 7 8 7 7 6 7 7 6 6 5 5 2
-1 -0 -0 -0 0 0 -0 -0 -0 -1 -1 -1 -1 -1 -1 -0 5 5 -1 -2 -1 1 4 4 5 5 7 6 7 8 9 9 8 8 8 7 8 7 7 8 6 6 5 5 3
-1 -0 -0 -0 -0 -0 -0 -0 -1 -1 -1 -1 -1 -1 -1 2 10 3 -1 -2 -1 3 4 5 6 6 7 8 7 9 9 8 8 8 8 8 7 8 7 6 6 5 5 4 3
-1 -1 -1 -0 -0 -0 -0 -0 -0 -1 -1 -1 -1 -1 2 6 7 2 -0 0 3 4 5 6 6 7 8 8 8 8 9 8 8 8 8 8 8 7 7 6 6 6 6 5 3
-0 0 1 -0 -0 -0 -1 -0 -1 -1 -1 -1 -1 -1 4 9 2 2 3 4 4 5 5 6 6 6 8 8 8 8 8 8 8 8 8 8 8 8 7 6 6 7 6 5 4
0 0 1 0 -1 -1 -1 -1 -1 -1 -1 -1 -1 2 5 7 2 1 4 4 4 5 5 5 6 6 7 8 8 8 9 8 8 8 8 8 9 9 6 7 7 7 6 6 5
1 1 0 -0 -1 -1 -1 -1 -1 -1 -1 -1 -1 3 7 3 1 3 4 4 4 4 4 5 4 6 7 7 8 9 9 11 9 9 9 8 10 8 7 7 7 6 6 6 6
1 1 0 -0 -1 -1 -1 -1 -1 -1 -1 -1 2 4 7 2 3 3 3 5 5 5 5 5 5 7 7 8 10 10 11 11 10 9 9 9 9 7 8 8 7 6 6 6 6
1 1 0 -0 -0 -0 -0 -0 -1 -1 0 1 2 5 5 6 4 4 4 4 5 5 6 6 7 8 8 9 13 12 12 12 11 10 10 9 9 7 7 8 7 6 6 6 6
1 1 1 0 0 0 1 2 4 5 3 5 5 7 6 5 3 4 5 5 5 6 9 8 9 10 9 8 10 11 11 11 10 10 10 10 10 9 7 7 7 7 6 6 5
1 1 0 0 0 0 1 4 3 3 7 4 4 5 5 4 6 5 5 6 7 9 9 10 11 8 9 10 11 11 12 12 10 10 11 10 10 9 8 8 7 7 6 5 5
2 2 1 1 -0 1 2 2 2 3 7 6 4 5 4 5 6 6 5 7 8 10 10 11 10 9 10 11 11 11 12 11 12 10 10 11 11 9 8 8 7 7 6 5 5
3 3 2 1 2 1 3 1 1 2 10 10 8 6 6 5 7 5 5 6 8 10 10 10 9 10 11 11 10 12 10 10 11 12 13 11 15 10 9 8 8 7 6 6 6
3 4 3 1 3 3 1 0 0 2 18 9 8 4 6 6 7 7 5 6 9 9 9 10 11 11 11 10 9 11 10 11 11 11 12 12 13 11 10 10 8 7 6 6 6
4 4 4 3 3 2 1 2 2 13 19 12 8 9 8 8 8 7 7 6 7 9 9 10 9 9 9 10 9 10 10 11 11 11 15 12 12 13 10 10 8 8 7 8 8
4 4 4 3 5 1 2 5 14 18 9 12 11 9 9 10 10 9 9 9 10 12 12 10 10 9 9 10 10 10 10 14 16 16 16 12 13 12 9 8 8 7 7 7 8
4 5 5 5 2 2 4 10 17 13 12 9 10 10 12 10 11 11 10 11 10 10 11 13 14 11 9 8 10 11 10 14 19 17 14 14 15 12 8 7 7 7 7 8 8
4 6 6 4 4 2 8 15 15 12 10 11 10 13 13 11 11 11 11 11 10 10 12 13 13 10 10 9 8 11 13 9 13 15 16 13 11 8 9 8 7 8 9 8 8
5 7 7 5 4 5 11 13 12 9 9 9 14 12 15 12 12 13 13 10 11 9 8 11 15 12 11 9 10 10 9 13 13 20 20 14 13 12 10 9 8 7 8 8 9
6 9 7 4 2 8 13 12 11 8 7 10 12 13 12 13 12 13 12 10 10 11 10 10 13 14 12 12 12 12 12 12 12 13 17 18 14 9 8 8 8 7 8 8 9
7 12 5 2 8 9 12 12 10 9 7 8 8 10 11 11 12 12 13 10 8 9 11 9 13 16 13 12 11 12 12 12 15 17 14 15 15 10 10 9 9 9 9 8 8
9 9 5 3 12 11 11 11 10 10 10 9 10 9 8 11 13 11 11 8 8 9 11 9 14 18 16 12 11 12 12 11 11 13 17 18 15 11 10 9 9 9 9 10 10
8 12 8 7 7 9 10 10 10 8 9 8 9 9 10 11 9 11 11 9 8 8 8 9 12 15 16 14 12 14 12 12 12 17 15 15 13 10 8 9 8 9 9 9 10
7 10 9 11 10 9 9 10 11 11 8 7 9 10 10 12 11 12 10 9 9 8 8 10 14 13 13 12 12 13 13 12 13 12 15 13 12 10 8 8 7 8 9 10 10
9 9 8 10 9 9 9 10 10 9 9 10 10 9 9 11 10 12 10 10 11 9 9 9 14 13 14 12 12 14 12 12 12 11 12 11 12 8 7 7 7 7 7 10 10
5 6 7 10 10 10 10 9 9 8 9 7 8 9 10 9 7 7 7 8 8 10 11 11 13 14 16 13 13 16 13 12 11 11 11 14 10 8 8 8 7 7 7 7 7